�N����,����,�~����,�C��,���x,�C��,����,���ϕ���,�ő�u�ԕ���,�ő厞����,���˗�,�I�_���x,�n�����x,�ő啗���N��,DTYPE
"21/06/30","00:10",0.0,21.0,90.2,1002.4,326.8,2.5,4.5,331.0,0.00,19.4,23.5,"00:06:16",1
"21/06/30","00:20",0.0,21.0,90.1,1002.4,335.8,1.8,3.4,330.7,0.00,19.4,23.5,"00:10:08",1
"21/06/30","00:30",0.0,20.8,90.0,1002.4,338.6,1.7,2.9,332.6,0.00,19.1,23.6,"00:29:28",1
"21/06/30","00:40",0.0,20.8,89.8,1002.2,328.0,2.5,3.5,330.4,0.00,19.1,23.4,"00:30:16",1
"21/06/30","00:50",0.0,20.8,89.6,1002.4,332.6,1.8,2.5,339.4,0.00,19.1,23.3,"00:40:08",1
"21/06/30","01:00",0.0,20.7,89.5,1002.6,342.3,1.7,3.6,343.7,0.00,19.0,23.5,"00:57:52",1
"21/06/30","01:10",0.0,20.7,89.4,1002.9,330.7,1.3,2.6,330.6,0.00,18.9,23.3,"01:01:28",1
"21/06/30","01:20",0.0,20.6,89.3,1002.6,323.1,1.6,2.4,332.3,0.00,18.8,23.2,"01:11:44",1
"21/06/30","01:30",0.0,20.5,89.3,1002.4,292.9,1.3,1.8,269.7,0.00,18.7,23.5,"01:21:28",1
"21/06/30","01:40",0.0,20.3,89.4,1002.9,281.6,1.2,2.1,310.3,0.00,18.5,23.3,"01:38:40",1
"21/06/30","01:50",0.0,20.2,89.6,1003.1,312.5,1.7,2.1,314.9,0.00,18.5,23.0,"01:45:20",1
"21/06/30","02:00",0.0,20.1,89.7,1002.4,320.2,1.3,2.2,339.6,0.00,18.4,23.2,"01:55:20",1
"21/06/30","02:10",0.0,20.0,89.9,1002.6,308.9,1.6,2.5,329.3,0.00,18.3,23.1,"02:03:44",1
"21/06/30","02:20",0.0,19.9,90.2,1002.6,319.0,1.6,2.9,332.1,0.00,18.3,23.3,"02:15:20",1
"21/06/30","02:30",0.0,19.9,90.4,1002.6,329.1,1.8,2.7,342.7,0.00,18.3,23.2,"02:24:16",1
"21/06/30","02:40",0.0,19.8,90.6,1002.9,319.2,1.7,2.2,315.9,0.00,18.3,23.2,"02:34:48",1
"21/06/30","02:50",0.0,19.8,90.8,1003.1,330.2,1.8,2.8,339.0,0.00,18.3,23.1,"02:42:48",1
"21/06/30","03:00",0.0,19.7,90.9,1002.9,331.6,1.6,2.8,342.0,0.00,18.2,23.1,"02:54:48",1
"21/06/30","03:10",0.0,19.7,91.1,1002.9,326.7,1.7,3.1,339.0,0.00,18.2,23.1,"03:09:52",1
"21/06/30","03:20",0.0,19.7,91.3,1003.1,333.5,2.0,3.1,342.3,0.00,18.3,22.9,"03:15:12",1
"21/06/30","03:30",0.0,19.8,91.4,1003.6,303.4,1.6,2.8,339.2,0.00,18.4,23.1,"03:20:16",1
"21/06/30","03:40",0.0,19.8,91.4,1003.4,297.8,1.1,1.8,335.9,0.00,18.4,23.1,"03:37:20",1
"21/06/30","03:50",0.0,19.9,91.5,1003.4,305.3,1.5,2.1,317.6,0.00,18.5,23.0,"03:40:16",1
"21/06/30","04:00",0.0,19.9,91.5,1003.4,300.3,1.3,2.2,295.8,0.00,18.5,22.8,"03:59:28",1
"21/06/30","04:10",0.0,19.9,91.4,1003.6,313.8,1.5,2.1,312.3,0.00,18.5,22.8,"04:06:08",1
"21/06/30","04:20",0.0,19.9,91.4,1003.6,323.9,1.7,2.5,335.4,0.00,18.5,22.9,"04:15:04",1
"21/06/30","04:30",0.0,20.0,91.3,1003.4,329.2,2.1,3.5,335.0,0.00,18.6,23.0,"04:26:00",1
"21/06/30","04:40",0.0,20.0,91.2,1003.4,319.5,2.0,3.3,341.5,0.00,18.6,23.1,"04:33:36",1
"21/06/30","04:50",0.0,20.0,91.1,1003.4,316.3,1.3,2.5,334.3,0.00,18.5,22.9,"04:46:32",1
"21/06/30","05:00",0.0,20.0,91.0,1003.6,295.5,1.2,2.4,307.6,0.00,18.5,22.7,"04:51:36",1
"21/06/30","05:10",0.0,19.9,91.0,1003.6,317.5,1.1,1.9,317.6,0.00,18.4,22.6,"05:07:48",1
"21/06/30","05:20",0.0,19.9,91.0,1003.1,324.9,1.3,2.1,331.9,0.00,18.4,22.8,"05:14:00",1
"21/06/30","05:30",0.0,19.8,91.0,1003.6,303.7,1.2,1.8,332.8,0.00,18.3,23.0,"05:21:12",1
"21/06/30","05:40",0.0,19.8,91.1,1003.4,318.3,1.5,2.7,333.3,0.00,18.3,22.7,"05:32:32",1
"21/06/30","05:50",0.0,19.8,91.2,1003.6,320.4,1.1,1.8,313.4,0.00,18.4,22.6,"05:43:20",1
"21/06/30","06:00",0.0,19.8,91.3,1003.8,305.9,1.0,1.6,329.0,0.01,18.4,22.7,"05:50:08",1
"21/06/30","06:10",0.0,20.0,91.4,1003.8,328.6,1.5,2.1,332.3,0.01,18.6,22.6,"06:02:00",1
"21/06/30","06:20",0.0,20.2,91.5,1003.8,323.6,1.2,1.8,327.1,0.02,18.8,22.7,"06:14:32",1
"21/06/30","06:30",0.0,20.5,91.6,1004.3,301.0,0.7,1.4,325.1,0.04,19.1,22.5,"06:22:40",1
"21/06/30","06:40",0.0,21.1,91.4,1004.1,316.3,1.0,1.7,325.9,0.07,19.7,22.7,"06:35:44",1
"21/06/30","06:50",0.0,21.3,91.1,1004.3,322.0,0.8,1.4,335.0,0.05,19.8,22.6,"06:48:16",1
"21/06/30","07:00",0.0,21.4,90.9,1004.5,333.4,1.1,1.7,340.6,0.06,19.9,22.5,"06:55:20",1
"21/06/30","07:10",0.0,22.2,90.6,1004.8,314.3,0.7,1.6,325.7,0.13,20.6,22.7,"07:05:28",1
"21/06/30","07:20",0.0,22.4,89.5,1004.5,261.1,0.8,1.3,253.0,0.13,20.6,22.7,"07:10:48",1
"21/06/30","07:30",0.0,23.0,88.8,1004.5,223.6,0.6,1.2,240.5,0.18,21.1,22.6,"07:20:32",1
"21/06/30","07:40",0.0,23.7,87.0,1004.3,202.8,0.7,1.3,203.4,0.21,21.4,22.8,"07:31:44",1
"21/06/30","07:50",0.0,23.9,85.8,1004.1,215.1,0.7,1.7,198.7,0.16,21.4,22.5,"07:44:24",1
"21/06/30","08:00",0.0,24.5,84.1,1004.3,101.5,0.6,1.4,110.3,0.20,21.7,22.6,"07:52:24",1
"21/06/30","08:10",0.0,25.3,81.7,1003.8,321.6,0.3,1.4,354.6,0.26,22.0,22.7,"08:00:48",1
"21/06/30","08:20",0.0,26.2,78.4,1003.6,126.4,0.3,1.3,111.8,0.31,22.2,22.7,"08:11:44",1
"21/06/30","08:30",0.0,26.7,74.4,1003.6,221.1,0.3,1.1,136.0,0.30,21.8,22.9,"08:22:48",1
"21/06/30","08:40",0.0,26.7,72.5,1004.1,165.4,0.6,1.6,207.6,0.32,21.4,22.8,"08:31:28",1
"21/06/30","08:50",0.0,27.3,70.3,1004.5,157.8,0.7,1.4,171.5,0.32,21.5,22.9,"08:44:00",1
"21/06/30","09:00",0.0,26.9,69.9,1003.8,105.6,0.7,2.0,41.1,0.23,21.0,22.9,"08:51:36",1
"21/06/30","09:10",0.0,26.3,70.7,1003.8,188.0,1.1,2.0,230.8,0.26,20.6,23.1,"09:07:52",1
"21/06/30","09:20",0.0,26.7,70.9,1003.6,186.3,0.7,2.0,184.6,0.27,21.0,22.8,"09:18:24",1
"21/06/30","09:30",0.0,26.9,69.9,1003.6,122.5,0.7,2.1,160.6,0.20,21.0,23.2,"09:21:20",1
"21/06/30","09:40",0.0,27.3,70.1,1003.6,152.4,0.7,1.7,107.2,0.27,21.4,23.3,"09:32:32",1
"21/06/30","09:50",0.0,27.3,70.0,1003.4,126.2,0.7,2.1,103.2,0.25,21.4,23.3,"09:46:32",1
"21/06/30","10:00",0.0,27.7,69.7,1003.6,51.7,0.8,2.2,7.1,0.31,21.7,23.2,"09:51:20",1
"21/06/30","10:10",0.0,28.1,69.2,1003.6,124.4,1.1,2.5,149.3,0.35,22.0,23.4,"10:08:40",1
"21/06/30","10:20",0.0,27.8,69.1,1003.6,118.2,1.2,2.7,92.0,0.25,21.7,23.4,"10:14:32",1
"21/06/30","10:30",0.0,28.0,69.8,1003.4,117.9,1.1,2.4,105.8,0.35,22.0,23.5,"10:23:44",1
"21/06/30","10:40",0.0,27.9,70.4,1003.6,148.5,1.7,4.1,159.4,0.34,22.1,23.6,"10:32:48",1
"21/06/30","10:50",0.0,27.8,69.7,1004.1,149.1,1.3,3.4,140.2,0.25,21.8,23.7,"10:47:52",1
"21/06/30","11:00",0.0,27.6,70.7,1003.8,137.8,1.5,2.9,132.7,0.23,21.8,23.7,"10:52:08",1
"21/06/30","11:10",0.0,28.1,70.3,1004.3,124.9,1.1,2.8,121.2,0.31,22.2,23.7,"11:03:44",1
"21/06/30","11:20",0.0,28.5,70.0,1004.1,129.2,1.1,3.2,130.8,0.31,22.5,23.7,"11:10:48",1
"21/06/30","11:30",0.0,29.1,70.1,1004.3,119.1,1.0,2.4,114.1,0.41,23.1,23.7,"11:20:16",1
"21/06/30","11:40",0.0,29.9,67.0,1004.1,105.6,1.3,2.9,180.7,0.50,23.1,23.9,"11:38:56",1
"21/06/30","11:50",0.0,30.6,65.6,1004.5,133.5,1.5,3.1,149.7,0.67,23.5,24.0,"11:46:32",1
"21/06/30","12:00",0.0,30.1,62.4,1005.0,59.6,1.1,2.6,58.4,0.32,22.2,24.0,"11:53:36",1
"21/06/30","12:10",0.0,29.2,66.7,1004.5,149.7,1.3,2.9,180.1,0.26,22.4,24.0,"12:04:16",1
"21/06/30","12:20",0.0,28.8,67.3,1004.1,168.7,1.3,2.7,130.9,0.25,22.2,24.2,"12:12:24",1
"21/06/30","12:30",0.0,29.3,65.0,1004.1,118.4,1.0,2.7,150.9,0.30,22.1,24.3,"12:20:48",1
"21/06/30","12:40",0.0,29.5,65.0,1004.1,114.2,0.7,2.8,116.8,0.20,22.3,24.3,"12:38:24",1
"21/06/30","12:50",0.0,30.6,65.2,1003.8,120.4,0.6,1.6,118.5,0.46,23.4,24.6,"12:42:24",1
"21/06/30","13:00",0.0,31.3,59.6,1004.5,141.2,1.0,2.2,96.7,0.49,22.5,24.3,"12:57:20",1
"21/06/30","13:10",0.0,31.3,61.5,1004.1,79.9,1.0,2.8,91.9,0.40,23.1,24.7,"13:03:36",1
"21/06/30","13:20",0.0,30.1,62.6,1004.1,90.6,1.2,3.6,50.9,0.19,22.2,24.7,"13:17:36",1
"21/06/30","13:30",0.0,30.8,62.5,1004.1,78.7,1.0,2.4,90.3,0.49,22.8,24.7,"13:20:40",1
"21/06/30","13:40",0.0,30.7,62.2,1004.3,121.3,1.3,2.7,114.6,0.38,22.7,24.9,"13:32:24",1
"21/06/30","13:50",0.0,31.1,63.2,1004.1,64.1,1.0,2.5,357.6,0.35,23.3,24.5,"13:45:20",1
"21/06/30","14:00",0.0,31.0,61.3,1004.1,108.3,1.1,3.2,138.1,0.29,22.7,24.9,"13:59:52",1
"21/06/30","14:10",0.0,30.8,61.9,1004.1,54.7,1.0,2.0,351.9,0.26,22.7,24.7,"14:03:36",1
"21/06/30","14:20",0.0,30.4,62.0,1003.8,67.8,1.0,2.6,10.3,0.17,22.3,25.0,"14:17:52",1
"21/06/30","14:30",0.0,30.0,63.2,1003.1,102.9,1.0,2.6,148.8,0.14,22.3,24.7,"14:28:32",1
"21/06/30","14:40",0.0,29.7,64.0,1003.1,99.6,1.0,2.6,97.2,0.15,22.2,25.0,"14:36:00",1
"21/06/30","14:50",0.0,29.5,64.4,1002.9,100.0,1.1,2.7,108.4,0.11,22.1,24.9,"14:45:36",1
"21/06/30","15:00",0.0,28.6,67.9,1002.9,123.5,1.6,4.8,107.3,0.06,22.1,25.1,"14:52:32",1
"21/06/30","15:10",0.0,27.0,75.0,1002.2,133.2,1.8,6.3,124.9,0.11,22.2,25.1,"15:01:04",1
"21/06/30","15:20",0.0,26.5,77.8,1001.9,100.9,0.8,3.2,128.3,0.10,22.3,24.9,"15:11:44",1
"21/06/30","15:30",0.2,26.5,79.5,1002.4,22.8,0.6,1.6,49.9,0.15,22.7,25.2,"15:21:36",1
"21/06/30","15:40",0.0,27.0,78.9,1002.6,4.2,1.0,2.0,10.4,0.29,23.1,24.9,"15:34:00",1
"21/06/30","15:50",0.0,27.2,77.1,1002.2,342.8,0.6,2.1,338.2,0.10,22.9,25.2,"15:48:48",1
"21/06/30","16:00",0.0,27.6,76.6,1002.2,358.8,0.7,1.6,130.1,0.16,23.2,25.1,"15:54:40",1
"21/06/30","16:10",0.0,27.9,75.6,1001.9,106.7,0.6,1.7,87.4,0.16,23.2,25.2,"16:08:56",1
"21/06/30","16:20",0.0,28.0,74.5,1002.2,77.6,0.8,2.5,344.4,0.14,23.1,24.9,"16:18:16",1
"21/06/30","16:30",0.0,28.1,73.7,1002.2,68.2,0.7,2.4,51.4,0.11,23.0,25.2,"16:22:48",1
"21/06/30","16:40",0.0,28.1,73.7,1002.4,91.9,0.8,2.2,43.4,0.13,23.0,25.2,"16:36:40",1
"21/06/30","16:50",0.0,27.9,73.5,1002.2,69.9,1.1,1.9,82.7,0.08,22.8,24.9,"16:41:12",1
"21/06/30","17:00",0.0,28.0,73.6,1002.4,55.4,0.7,1.6,50.2,0.08,22.9,25.2,"16:53:44",1
"21/06/30","17:10",0.0,27.7,74.0,1002.4,119.0,1.0,3.3,126.1,0.06,22.7,25.5,"17:08:08",1
"21/06/30","17:20",0.0,27.6,73.8,1002.4,88.5,0.7,2.1,100.5,0.07,22.5,25.2,"17:10:56",1
"21/06/30","17:30",0.0,27.5,73.0,1002.6,70.1,0.7,2.0,101.4,0.05,22.3,25.2,"17:26:00",1
"21/06/30","17:40",0.0,27.5,72.0,1002.6,93.0,1.0,2.7,134.6,0.04,22.0,25.2,"17:30:48",1
"21/06/30","17:50",0.0,27.4,71.5,1002.9,90.0,0.8,2.9,81.1,0.01,21.8,25.1,"17:42:24",1
"21/06/30","18:00",0.0,27.0,71.4,1003.1,101.5,0.7,2.0,95.5,0.00,21.4,25.0,"17:54:40",1
"21/06/30","18:10",0.0,27.0,70.0,1002.9,104.5,1.2,3.6,126.9,0.00,21.1,25.0,"18:07:12",1
"21/06/30","18:20",0.0,27.0,69.9,1003.4,98.5,0.8,2.6,104.1,0.00,21.1,25.2,"18:12:32",1
"21/06/30","18:30",0.0,27.0,71.3,1003.4,77.5,0.5,2.0,88.6,0.01,21.4,25.1,"18:24:16",1
"21/06/30","18:40",0.0,26.8,72.4,1003.4,82.2,0.7,2.6,96.1,0.00,21.5,25.0,"18:36:24",1
"21/06/30","18:50",0.0,26.6,73.3,1003.8,82.6,0.6,2.2,149.1,0.00,21.5,25.1,"18:40:24",1
"21/06/30","19:00",0.0,26.4,73.7,1004.1,108.5,0.8,2.4,134.3,0.00,21.4,24.8,"18:50:24",1
"21/06/30","19:10",0.0,26.4,73.6,1004.1,92.6,0.7,2.5,96.3,0.00,21.3,25.1,"19:05:20",1
"21/06/30","19:20",0.0,26.3,74.0,1004.3,98.8,0.8,2.2,117.3,0.00,21.3,25.0,"19:12:32",1
"21/06/30","19:30",0.0,25.9,74.4,1004.3,134.3,1.3,4.5,154.6,0.00,21.0,25.0,"19:25:20",1
"21/06/30","19:40",0.0,25.8,74.6,1004.8,152.0,2.3,4.4,128.2,0.00,21.0,25.0,"19:32:48",1
"21/06/30","19:50",0.0,25.4,76.1,1004.8,155.4,1.6,3.3,132.4,0.00,20.9,24.9,"19:45:44",1
"21/06/30","20:00",0.2,25.0,78.2,1004.8,156.7,1.8,3.9,200.7,0.00,21.0,24.9,"19:52:32",1
"21/06/30","20:10",0.6,24.6,80.7,1004.3,163.8,1.1,2.9,136.9,0.00,21.1,24.8,"20:00:40",1
"21/06/30","20:20",0.0,24.1,82.8,1004.8,207.0,1.1,3.2,222.7,0.00,21.0,24.9,"20:15:20",1
"21/06/30","20:30",0.0,23.5,84.4,1004.5,217.1,0.7,2.2,219.0,0.00,20.8,24.7,"20:20:48",1
"21/06/30","20:40",0.2,23.5,85.4,1004.8,322.2,1.1,1.6,252.9,0.00,20.9,24.8,"20:31:28",1
"21/06/30","20:50",0.0,23.4,86.2,1005.0,345.1,1.0,1.8,343.1,0.00,21.0,24.7,"20:41:28",1
"21/06/30","21:00",0.0,23.2,87.0,1005.0,327.8,1.0,1.7,348.9,0.00,21.0,24.6,"20:53:28",1
"21/06/30","21:10",0.0,23.1,87.9,1004.8,316.3,0.7,1.7,334.9,0.00,21.0,24.6,"21:09:28",1
"21/06/30","21:20",0.0,23.0,88.5,1004.8,288.4,0.8,2.0,337.3,0.00,21.0,24.7,"21:10:16",1
"21/06/30","21:30",0.0,23.1,89.1,1005.0,304.8,0.8,1.4,312.1,0.00,21.2,24.6,"21:26:00",1
"21/06/30","21:40",0.0,23.0,89.4,1005.0,303.6,0.7,1.2,306.9,0.00,21.2,24.5,"21:33:28",1
"21/06/30","21:50",0.0,23.0,89.9,1004.8,286.7,0.7,1.3,269.6,0.00,21.3,24.5,"21:45:36",1
"21/06/30","22:00",0.0,22.9,90.3,1005.2,302.2,0.7,1.7,299.9,0.00,21.3,24.5,"21:53:04",1
"21/06/30","22:10",0.0,23.0,90.6,1005.0,302.1,1.0,1.1,313.6,0.00,21.4,24.5,"22:03:28",1
"21/06/30","22:20",0.0,23.1,90.8,1005.0,305.6,0.8,1.6,334.5,0.00,21.6,24.4,"22:19:12",1
"21/06/30","22:30",0.0,23.0,91.1,1005.7,288.7,1.0,1.8,320.1,0.00,21.5,24.5,"22:22:56",1
"21/06/30","22:40",0.0,22.9,91.3,1005.5,289.6,0.6,1.6,338.4,0.00,21.4,24.4,"22:31:52",1
"21/06/30","22:50",0.2,22.9,91.5,1005.5,53.4,0.6,1.8,26.2,0.00,21.5,24.4,"22:44:00",1
"21/06/30","23:00",0.6,22.9,91.7,1005.2,55.9,0.5,2.0,115.7,0.00,21.5,24.1,"22:51:52",1
"21/06/30","23:10",0.6,22.7,91.8,1005.5,97.5,0.6,1.3,130.8,0.00,21.3,24.3,"23:01:28",1
"21/06/30","23:20",0.6,22.6,92.0,1005.7,92.6,0.5,1.0,114.3,0.00,21.3,24.2,"23:18:24",1
"21/06/30","23:30",0.8,22.6,92.2,1005.5,69.7,0.7,1.6,64.8,0.00,21.3,24.2,"23:23:04",1
"21/06/30","23:40",1.2,22.4,92.3,1005.5,42.3,0.6,1.2,63.0,0.00,21.1,24.2,"23:33:44",1
"21/06/30","23:50",0.6,22.2,92.5,1005.5,27.2,0.5,1.4,6.3,0.00,21.0,24.2,"23:41:44",1
"21/06/30","24:00",0.8,22.1,92.7,1005.0,69.9,0.3,1.0,114.3,0.00,20.9,24.2,"23:52:00",1
